| time (UTC) | temp C | wind direction | speed KPH | gust KPH | rain 1hr cm | rain 24hr cm | rain mn cm | humidity % | barometer mb |
| 20260504185432 | 17 | 214 | 8.0 | 24.1 | 0.00 | 0.00 | 0.00 | 91 | 1017.2 |
| 20260504184928 | 17 | 207 | 6.4 | 24.1 | 0.00 | 0.00 | 0.00 | 91 | 1017.3 |
| 20260504184423 | 17 | 237 | 3.2 | 22.5 | 0.00 | 0.00 | 0.00 | 92 | 1017.2 |
| 20260504183920 | 17 | 193 | 14.5 | 19.3 | 0.00 | 0.00 | 0.00 | 92 | 1017.2 |
| 20260504183417 | 17 | 203 | 11.3 | 17.7 | 0.00 | 0.00 | 0.00 | 93 | 1017.4 |
| 20260504182915 | 17 | 192 | 6.4 | 33.8 | 0.00 | 0.00 | 0.00 | 93 | 1017.2 |
| 20260504182412 | 17 | 205 | 4.8 | 20.9 | 0.00 | 0.00 | 0.00 | 93 | 1017.1 |
| 20260504181909 | 17 | 217 | 9.7 | 20.9 | 0.00 | 0.00 | 0.00 | 93 | 1017.3 |
| 20260504181406 | 17 | 232 | 12.9 | 29.0 | 0.00 | 0.00 | 0.00 | 93 | 1017.2 |
| 20260504180904 | 17 | 229 | 11.3 | 17.7 | 0.00 | 0.00 | 0.00 | 93 | 1017.0 |
| 20260504180403 | 17 | 204 | 8.0 | 22.5 | 0.00 | 0.00 | 0.00 | 94 | 1017.2 |
| 20260504175901 | 17 | 193 | 14.5 | 30.6 | 0.00 | 0.00 | 0.00 | 94 | 1017.0 |
| 20260504175357 | 17 | 211 | 8.0 | 19.3 | 0.00 | 0.00 | 0.00 | 94 | 1017.0 |
| 20260504174855 | 17 | 202 | 6.4 | 20.9 | 0.00 | 0.00 | 0.00 | 95 | 1016.6 |
| 20260504174352 | 17 | 204 | 9.7 | 20.9 | 0.00 | 0.00 | 0.00 | 95 | 1016.8 |
| 20260504173849 | 17 | 212 | 17.7 | 20.9 | 0.00 | 0.00 | 0.00 | 95 | 1016.8 |
| 20260504173346 | 17 | 201 | 8.0 | 29.0 | 0.00 | 0.00 | 0.00 | 94 | 1016.8 |
| 20260504172843 | 17 | 191 | 8.0 | 20.9 | 0.00 | 0.00 | 0.00 | 94 | 1016.3 |
| 20260504172340 | 17 | 189 | 9.7 | 22.5 | 0.00 | 0.00 | 0.00 | 94 | 1016.3 |
| 20260504171835 | 17 | 186 | 4.8 | 27.4 | 0.00 | 0.00 | 0.00 | 93 | 1016.4 |
| 20260504171333 | 17 | 204 | 14.5 | 19.3 | 0.00 | 0.00 | 0.00 | 93 | 1016.5 |
| 20260504170830 | 17 | 181 | 11.3 | 20.9 | 0.00 | 0.00 | 0.00 | 93 | 1016.4 |
| 20260504170327 | 17 | 220 | 11.3 | 20.9 | 0.00 | 0.00 | 0.00 | 93 | 1016.5 |
| 20260504160245 | 17 | 207 | 14.5 | 22.5 | 0.00 | 0.00 | 0.00 | 95 | 1016.4 |
| 20260504150710 | 18 | 240 | 20.9 | 27.4 | 0.00 | 0.00 | 0.00 | 92 | 1015.6 |
| 20260504150207 | 18 | 204 | 14.5 | 24.1 | 0.00 | 0.00 | 0.00 | 92 | 1015.7 |
| 20260504141136 | 18 | 207 | 12.9 | 22.5 | 0.00 | 0.00 | 0.00 | 95 | 1016.0 |
| 20260504140633 | 18 | 247 | 8.0 | 29.0 | 0.00 | 0.00 | 0.00 | 95 | 1016.1 |
| 20260504140129 | 18 | 216 | 4.8 | 22.5 | 0.00 | 0.00 | 0.00 | 95 | 1016.1 |
| 20260504130557 | 18 | 178 | 12.9 | 20.9 | 0.00 | 0.00 | 0.00 | 97 | 1014.7 |
| 20260504110445 | 20 | 184 | 8.0 | 9.7 | 0.00 | 0.00 | 0.00 | 91 | 1014.2 |
| 20260504100401 | 22 | 218 | 6.4 | 17.7 | 0.00 | 0.00 | 0.00 | 86 | 1015.4 |
| 20260504081754 | 23 | 199 | 3.2 | 11.3 | 0.00 | 0.00 | 0.00 | 81 | 1014.7 |
| 20260504081251 | 22 | 239 | 9.7 | 20.9 | 0.00 | 0.00 | 0.00 | 83 | 1015.0 |
| 20260504080748 | 22 | 207 | 8.0 | 14.5 | 0.00 | 0.00 | 0.00 | 81 | 1014.8 |
| 20260504080244 | 22 | 181 | 8.0 | 11.3 | 0.00 | 0.00 | 0.00 | 82 | 1015.0 |
| 20260504070212 | 21 | 209 | 8.0 | 11.3 | 0.00 | 0.00 | 0.00 | 83 | 1014.7 |
| 20260504060132 | 21 | 201 | 4.8 | 16.1 | 0.00 | 0.00 | 0.00 | 85 | 1014.4 |
| 20260504050600 | 20 | 244 | 0.0 | 17.7 | 0.00 | 0.00 | 0.00 | 90 | 1014.2 |
| 20260504045554 | 20 | 174 | 1.6 | 17.7 | 0.00 | 0.00 | 0.00 | 90 | 1014.0 |
| 20260504045049 | 19 | 221 | 3.2 | 4.8 | 0.00 | 0.00 | 0.00 | 92 | 1014.0 |
| 20260504044547 | 19 | 229 | 1.6 | 6.4 | 0.00 | 0.00 | 0.00 | 92 | 1014.0 |
| 20260504044044 | 19 | 316 | 3.2 | 6.4 | 0.00 | 0.00 | 0.00 | 91 | 1013.9 |
| 20260504043541 | 19 | 271 | 4.8 | 6.4 | 0.00 | 0.00 | 0.00 | 91 | 1014.0 |
| 20260504043038 | 19 | 201 | 3.2 | 6.4 | 0.00 | 0.00 | 0.00 | 90 | 1013.7 |
| 20260504042535 | 20 | 272 | 6.4 | 9.7 | 0.00 | 0.00 | 0.00 | 90 | 1013.8 |
| 20260504042032 | 20 | 238 | 0.0 | 6.4 | 0.00 | 0.00 | 0.00 | 91 | 1013.8 |
| 20260504041527 | 19 | 199 | 4.8 | 8.0 | 0.00 | 0.00 | 0.00 | 90 | 1013.9 |
| 20260504041024 | 19 | 272 | 9.7 | 12.9 | 0.00 | 0.00 | 0.00 | 90 | 1013.8 |
| 20260504040522 | 20 | 249 | 6.4 | 16.1 | 0.00 | 0.00 | 0.00 | 90 | 1013.8 |
| 20260504040018 | 20 | 243 | 16.1 | 16.1 | 0.00 | 0.00 | 0.00 | 90 | 1013.9 |
| 20260504035515 | 20 | 246 | 4.8 | 11.3 | 0.00 | 0.00 | 0.00 | 89 | 1013.9 |
| 20260504035011 | 20 | 278 | 4.8 | 14.5 | 0.00 | 0.00 | 0.00 | 89 | 1013.9 |
| 20260504034509 | 20 | 233 | 9.7 | 20.9 | 0.00 | 0.00 | 0.00 | 90 | 1013.9 |
| 20260504034006 | 19 | 268 | 11.3 | 14.5 | 0.00 | 0.00 | 0.00 | 90 | 1014.1 |
| 20260504033504 | 19 | 256 | 11.3 | 14.5 | 0.00 | 0.00 | 0.00 | 91 | 1014.0 |
| 20260504033001 | 19 | 258 | 8.0 | 11.3 | 0.00 | 0.00 | 0.00 | 90 | 1013.9 |
| 20260504032458 | 19 | 227 | 3.2 | 6.4 | 0.00 | 0.00 | 0.00 | 89 | 1014.0 |
| 20260504031954 | 19 | 264 | 6.4 | 8.0 | 0.00 | 0.00 | 0.00 | 88 | 1013.9 |
| 20260504031451 | 19 | 258 | 4.8 | 16.1 | 0.00 | 0.00 | 0.00 | 87 | 1013.8 |
| 20260504030948 | 19 | 236 | 14.5 | 14.5 | 0.00 | 0.00 | 0.00 | 87 | 1013.8 |
| 20260504030445 | 19 | 235 | 8.0 | 14.5 | 0.00 | 0.00 | 0.00 | 87 | 1014.1 |
| 20260504025940 | 19 | 234 | 8.0 | 12.9 | 0.00 | 0.00 | 0.00 | 86 | 1014.0 |
| 20260504025438 | 19 | 271 | 8.0 | 12.9 | 0.00 | 0.00 | 0.00 | 85 | 1014.1 |
| 20260504024935 | 19 | 259 | 3.2 | 9.7 | 0.00 | 0.00 | 0.00 | 84 | 1014.2 |
| 20260504024432 | 20 | 246 | 4.8 | 11.3 | 0.00 | 0.00 | 0.00 | 83 | 1014.1 |
| 20260504023929 | 20 | 240 | 3.2 | 16.1 | 0.00 | 0.00 | 0.00 | 82 | 1014.0 |
| 20260504023425 | 20 | 241 | 6.4 | 11.3 | 0.00 | 0.00 | 0.00 | 80 | 1013.8 |
| 20260504022921 | 19 | 220 | 12.9 | 16.1 | 0.00 | 0.00 | 0.00 | 79 | 1013.9 |
| 20260504022417 | 20 | 223 | 14.5 | 17.7 | 0.00 | 0.00 | 0.00 | 77 | 1013.9 |
| 20260504021914 | 20 | 230 | 9.7 | 12.9 | 0.00 | 0.00 | 0.00 | 75 | 1013.9 |
| 20260504021411 | 20 | 232 | 12.9 | 17.7 | 0.00 | 0.00 | 0.00 | 73 | 1014.0 |
| 20260504020909 | 20 | 229 | 16.1 | 16.1 | 0.00 | 0.00 | 0.00 | 70 | 1014.1 |
| 20260504020405 | 20 | 225 | 8.0 | 14.5 | 0.00 | 0.00 | 0.00 | 69 | 1014.0 |
| 20260504015901 | 20 | 239 | 11.3 | 19.3 | 0.00 | 0.00 | 0.00 | 66 | 1014.2 |
| 20260504015357 | 20 | 205 | 8.0 | 12.9 | 0.00 | 0.00 | 0.00 | 64 | 1014.1 |
| 20260504014853 | 20 | 243 | 14.5 | 19.3 | 0.00 | 0.00 | 0.00 | 64 | 1014.2 |
| 20260504014350 | 20 | 221 | 14.5 | 16.1 | 0.00 | 0.00 | 0.00 | 64 | 1013.9 |
| 20260504013847 | 20 | 188 | 11.3 | 17.7 | 0.00 | 0.00 | 0.00 | 64 | 1014.0 |
| 20260504013345 | 19 | 251 | 6.4 | 9.7 | 0.00 | 0.00 | 0.00 | 65 | 1014.2 |
| 20260504012842 | 18 | 124 | 0.0 | 6.4 | 0.00 | 0.00 | 0.00 | 69 | 1014.2 |
| 20260504012339 | 16 | 213 | 0.0 | 3.2 | 0.00 | 0.00 | 0.00 | 74 | 1014.0 |
| 20260504011837 | 15 | 49 | 0.0 | 3.2 | 0.00 | 0.00 | 0.00 | 78 | 1014.2 |
| 20260504011333 | 16 | 107 | 0.0 | 3.2 | 0.00 | 0.00 | 0.00 | 77 | 1014.0 |
| 20260504010829 | 16 | 149 | 0.0 | 1.6 | 0.00 | 0.00 | 0.00 | 76 | 1014.1 |
| 20260504010325 | 16 | 173 | 3.2 | 3.2 | 0.00 | 0.00 | 0.00 | 75 | 1014.3 |
| 20260504005821 | 16 | 80 | 0.0 | 4.8 | 0.00 | 0.00 | 0.00 | 74 | 1014.0 |
| 20260504005319 | 17 | 120 | 3.2 | 6.4 | 0.00 | 0.00 | 0.00 | 73 | 1014.1 |
| 20260504004816 | 17 | 56 | 0.0 | 3.2 | 0.00 | 0.00 | 0.00 | 71 | 1014.2 |
| 20260504004314 | 17 | 53 | 6.4 | 6.4 | 0.00 | 0.00 | 0.00 | 71 | 1014.2 |
| 20260504003810 | 17 | 56 | 0.0 | 6.4 | 0.00 | 0.00 | 0.00 | 70 | 1014.0 |
| 20260504003307 | 18 | 133 | 0.0 | 1.6 | 0.00 | 0.00 | 0.00 | 66 | 1014.0 |
| 20260504002803 | 18 | 204 | 3.2 | 4.8 | 0.00 | 0.00 | 0.00 | 64 | 1014.2 |
| 20260504002300 | 19 | 232 | 1.6 | 4.8 | 0.00 | 0.00 | 0.00 | 62 | 1014.2 |
| 20260504001758 | 17 | 283 | 3.2 | 6.4 | 0.00 | 0.00 | 0.00 | 66 | 1014.3 |
| 20260504001255 | 17 | 255 | 1.6 | 4.8 | 0.00 | 0.00 | 0.00 | 69 | 1014.4 |
| 20260504000752 | 17 | 217 | 3.2 | 4.8 | 0.00 | 0.00 | 0.00 | 69 | 1014.3 |
| 20260504000249 | 17 | 184 | 1.6 | 3.2 | 0.00 | 0.00 | 0.00 | 68 | 1014.5 |
| 20260503235747 | 18 | 269 | 0.0 | 6.4 | 0.00 | 0.00 | 0.00 | 64 | 1014.4 |
| 20260503235244 | 18 | 228 | 3.2 | 3.2 | 0.00 | 0.00 | 0.00 | 64 | 1014.6 |
| 20260503234741 | 19 | 239 | 3.2 | 4.8 | 0.00 | 0.00 | 0.00 | 63 | 1014.6 |
| 20260503234239 | 19 | 225 | 3.2 | 6.4 | 0.00 | 0.00 | 0.00 | 62 | 1014.5 |
| 20260503233736 | 20 | 250 | 3.2 | 4.8 | 0.00 | 0.00 | 0.00 | 59 | 1014.6 |
| 20260503233232 | 20 | 287 | 1.6 | 4.8 | 0.00 | 0.00 | 0.00 | 59 | 1014.5 |
| 20260503232729 | 20 | 250 | 3.2 | 6.4 | 0.00 | 0.00 | 0.00 | 60 | 1014.6 |
| 20260503232226 | 20 | 252 | 6.4 | 8.0 | 0.00 | 0.00 | 0.00 | 60 | 1014.6 |
| 20260503231725 | 20 | 230 | 6.4 | 8.0 | 0.00 | 0.00 | 0.00 | 61 | 1014.5 |
| 20260503231221 | 20 | 247 | 1.6 | 6.4 | 0.00 | 0.00 | 0.00 | 62 | 1014.3 |
| 20260503230717 | 20 | 219 | 6.4 | 6.4 | 0.00 | 0.00 | 0.00 | 62 | 1014.4 |
| 20260503230214 | 19 | 263 | 4.8 | 6.4 | 0.00 | 0.00 | 0.00 | 64 | 1014.6 |
| 20260503225711 | 18 | 263 | 3.2 | 4.8 | 0.00 | 0.00 | 0.00 | 66 | 1014.7 |
| 20260503225206 | 18 | 244 | 3.2 | 8.0 | 0.00 | 0.00 | 0.00 | 67 | 1014.5 |
| 20260503224704 | 18 | 257 | 3.2 | 3.2 | 0.00 | 0.00 | 0.00 | 70 | 1014.5 |
| 20260503224201 | 17 | 226 | 0.0 | 4.8 | 0.00 | 0.00 | 0.00 | 71 | 1014.6 |
| 20260503223659 | 17 | 235 | 1.6 | 4.8 | 0.00 | 0.00 | 0.00 | 72 | 1014.8 |
| 20260503223156 | 17 | 248 | 3.2 | 3.2 | 0.00 | 0.00 | 0.00 | 73 | 1014.7 |
| 20260503222652 | 17 | 255 | 3.2 | 4.8 | 0.00 | 0.00 | 0.00 | 74 | 1014.8 |
| 20260503222150 | 17 | 270 | 3.2 | 3.2 | 0.00 | 0.00 | 0.00 | 73 | 1014.7 |
| 20260503221649 | 17 | 247 | 3.2 | 4.8 | 0.00 | 0.00 | 0.00 | 74 | 1015.0 |
| 20260503221145 | 17 | 247 | 0.0 | 3.2 | 0.00 | 0.00 | 0.00 | 73 | 1015.0 |
| 20260503220642 | 18 | 257 | 3.2 | 3.2 | 0.00 | 0.00 | 0.00 | 73 | 1015.1 |
| 20260503220138 | 18 | 239 | 3.2 | 3.2 | 0.00 | 0.00 | 0.00 | 72 | 1015.1 |
| 20260503215636 | 18 | 235 | 0.0 | 4.8 | 0.00 | 0.00 | 0.00 | 70 | 1015.3 |
| 20260503215132 | 18 | 248 | 1.6 | 3.2 | 0.00 | 0.00 | 0.00 | 71 | 1015.2 |
| 20260503214631 | 18 | 214 | 1.6 | 4.8 | 0.00 | 0.00 | 0.00 | 72 | 1015.3 |
| 20260503214127 | 18 | 245 | 3.2 | 4.8 | 0.00 | 0.00 | 0.00 | 71 | 1015.3 |
| 20260503213626 | 18 | 246 | 3.2 | 3.2 | 0.00 | 0.00 | 0.00 | 72 | 1015.5 |
| 20260503213122 | 18 | 241 | 1.6 | 4.8 | 0.00 | 0.00 | 0.00 | 73 | 1015.4 |
| 20260503212620 | 18 | 254 | 3.2 | 4.8 | 0.00 | 0.00 | 0.00 | 73 | 1015.2 |
| 20260503212117 | 19 | 310 | 0.0 | 4.8 | 0.00 | 0.00 | 0.00 | 73 | 1015.6 |
| 20260503211615 | 18 | 241 | 3.2 | 4.8 | 0.00 | 0.00 | 0.00 | 73 | 1015.4 |
| 20260503211110 | 18 | 120 | 0.0 | 4.8 | 0.00 | 0.00 | 0.00 | 74 | 1015.6 |
| 20260503210607 | 18 | 234 | 4.8 | 4.8 | 0.00 | 0.00 | 0.00 | 75 | 1015.7 |
| 20260503205559 | 18 | 228 | 3.2 | 4.8 | 0.00 | 0.00 | 0.00 | 79 | 1015.8 |
| 20260503205055 | 18 | 207 | 0.0 | 3.2 | 0.00 | 0.00 | 0.00 | 79 | 1015.7 |
| 20260503204553 | 18 | 275 | 1.6 | 4.8 | 0.00 | 0.00 | 0.00 | 78 | 1015.9 |
| 20260503204050 | 18 | 229 | 4.8 | 4.8 | 0.00 | 0.00 | 0.00 | 79 | 1015.9 |
| 20260503203547 | 18 | 222 | 4.8 | 6.4 | 0.00 | 0.00 | 0.00 | 78 | 1016.0 |
| 20260503203044 | 18 | 197 | 3.2 | 6.4 | 0.00 | 0.00 | 0.00 | 79 | 1016.1 |
| 20260503202542 | 18 | 240 | 4.8 | 8.0 | 0.00 | 0.00 | 0.00 | 79 | 1016.1 |
| 20260503202039 | 18 | 224 | 3.2 | 6.4 | 0.00 | 0.00 | 0.00 | 80 | 1016.1 |
| 20260503201537 | 18 | 244 | 1.6 | 6.4 | 0.00 | 0.00 | 0.00 | 81 | 1016.0 |
| 20260503201034 | 17 | 244 | 3.2 | 4.8 | 0.00 | 0.00 | 0.00 | 84 | 1016.1 |
| 20260503200530 | 17 | 229 | 3.2 | 4.8 | 0.00 | 0.00 | 0.00 | 85 | 1016.2 |
| 20260503200027 | 17 | 229 | 4.8 | 6.4 | 0.00 | 0.00 | 0.00 | 84 | 1016.3 |
| 20260503195524 | 17 | 264 | 3.2 | 4.8 | 0.00 | 0.00 | 0.00 | 83 | 1016.2 |
| 20260503195021 | 17 | 212 | 3.2 | 4.8 | 0.00 | 0.00 | 0.00 | 84 | 1016.2 |
| 20260503194519 | 17 | 256 | 1.6 | 4.8 | 0.00 | 0.00 | 0.00 | 85 | 1016.3 |
| 20260503194018 | 17 | 130 | 0.0 | 1.6 | 0.00 | 0.00 | 0.00 | 84 | 1016.4 |
| 20260503193515 | 17 | 255 | 3.2 | 3.2 | 0.00 | 0.00 | 0.00 | 84 | 1016.5 |
| 20260503193010 | 17 | 248 | 3.2 | 3.2 | 0.00 | 0.00 | 0.00 | 83 | 1016.4 |
| 20260503192507 | 17 | 207 | 3.2 | 4.8 | 0.00 | 0.00 | 0.00 | 83 | 1016.4 |
| 20260503192002 | 17 | 182 | 1.6 | 3.2 | 0.00 | 0.00 | 0.00 | 85 | 1016.5 |
| 20260503191500 | 17 | 192 | 0.0 | 1.6 | 0.00 | 0.00 | 0.00 | 84 | 1016.5 |
| 20260503190956 | 17 | 201 | 1.6 | 3.2 | 0.00 | 0.00 | 0.00 | 85 | 1016.8 |
| 20260503190453 | 17 | 215 | 1.6 | 3.2 | 0.00 | 0.00 | 0.00 | 85 | 1016.6 |
| 20260503185950 | 17 | 212 | 0.0 | 3.2 | 0.00 | 0.00 | 0.00 | 85 | 1016.7 |